Temperature
22 22 22 23 27 30 31 33 31 32 30 28 27 27 27 26 27 24 20 18 18 19 18 19 19 19 18 18 19 19 19 19 19 19 19 19 19 19 18 18 18 18 18 18 17 17 17 17 17
21 22 22 26 29 30 32 32 30 30 28 27 26 26 26 24 22 21 20 19 18 18 18 18 19 19 19 18 18 18 18 19 18 19 19 19 18 18 18 18 18 18 17 17 17 17 17 17 17
21 21 25 29 29 31 31 31 31 29 27 28 27 27 26 24 21 21 19 19 18 18 17 18 18 18 19 18 18 18 18 18 18 18 18 18 18 18 18 17 17 17 17 17 17 17 17 17 17
21 23 26 28 30 32 32 31 30 28 28 28 28 26 23 21 21 20 19 18 18 18 17 18 18 18 18 18 18 18 18 18 18 18 18 17 17 17 17 17 17 17 17 17 17 17 17 17 17
22 26 29 29 31 31 31 30 29 29 29 28 28 27 24 20 20 19 19 19 18 18 18 18 19 18 19 19 18 18 18 17 17 17 17 17 17 17 17 17 17 17 17 17 17 17 17 17 17
25 27 30 30 30 30 31 30 30 30 29 28 28 28 24 20 19 19 19 19 19 19 19 18 20 19 19 19 18 18 18 18 18 18 17 17 17 17 17 17 17 17 17 17 17 17 17 17 17
26 28 29 30 30 31 31 30 30 30 30 29 28 28 24 21 20 19 19 19 19 19 19 18 19 19 19 18 18 18 18 18 18 17 17 17 17 17 17 17 17 17 17 17 17 17 17 17 17
26 28 29 31 30 32 30 30 30 30 30 28 28 29 27 22 21 19 19 19 19 19 19 19 18 18 18 18 18 18 18 17 17 17 17 17 17 17 17 17 17 17 17 17 17 17 17 17 17
25 28 30 32 31 32 30 30 30 29 28 27 27 28 26 24 22 19 19 19 19 19 19 18 17 18 18 17 19 19 18 18 17 17 17 17 16 17 16 16 17 17 16 16 16 17 17 17 17
26 29 31 30 30 31 31 31 29 29 28 28 27 25 23 24 22 20 20 20 20 19 19 18 18 18 17 17 17 17 17 17 17 16 17 17 16 16 16 16 16 16 16 16 16 17 17 16 16
27 30 30 29 29 29 31 31 30 30 29 29 27 25 22 23 22 21 21 21 20 19 19 19 18 18 18 17 17 17 17 16 16 17 16 16 16 16 16 16 16 16 16 16 16 16 16 16 16
26 28 28 29 29 29 30 31 31 31 31 29 28 26 22 23 23 22 22 20 19 19 20 20 18 18 18 18 17 17 17 16 16 16 16 16 16 16 16 16 16 16 16 16 16 16 16 16 16
27 28 28 28 29 30 29 30 31 30 29 28 27 25 23 24 24 23 22 21 19 19 20 20 19 18 17 17 17 17 17 16 16 16 16 16 17 17 16 16 16 16 16 16 16 16 16 16 16
27 27 28 28 30 30 31 30 30 30 27 27 26 25 24 24 24 23 21 20 18 18 19 19 19 18 17 17 17 17 17 16 16 16 16 16 16 16 16 16 16 16 16 16 15 16 15 15 15
26 27 28 29 30 30 30 30 31 28 27 27 26 25 24 23 23 22 20 19 17 17 18 19 18 18 17 17 17 16 16 16 17 16 16 16 16 16 16 15 15 15 15 15 15 15 14 14 14
26 27 28 30 30 29 29 30 30 27 27 27 26 25 24 23 23 22 20 17 16 17 17 18 18 18 17 17 17 17 16 16 16 15 15 16 16 16 15 15 14 14 14 14 14 14 13 13 13
27 27 28 29 29 30 29 30 29 27 27 27 26 25 23 22 22 21 18 16 16 16 17 18 18 18 17 17 16 16 16 15 15 15 14 16 16 16 15 14 14 14 13 13 13 12 12 12 12
28 28 28 28 29 29 29 29 28 27 27 27 26 24 22 20 21 20 17 16 16 16 17 19 18 17 17 17 16 15 15 15 15 15 15 15 15 15 14 13 14 13 13 13 13 12 12 11 11
27 26 27 28 28 27 28 28 28 27 26 27 26 23 22 19 19 18 16 16 16 16 17 17 19 18 16 16 16 15 16 15 15 15 15 14 14 14 13 12 13 13 12 12 12 11 11 10 10
25 25 26 27 27 27 27 27 28 27 26 26 26 23 20 19 17 17 16 16 16 16 17 18 18 17 16 15 15 15 14 14 14 14 14 13 13 13 12 12 11 11 10 9 8 8 9 9 9
25 25 26 26 27 26 26 26 27 27 25 25 24 24 21 18 17 16 16 15 15 15 16 17 16 16 15 15 15 15 15 14 13 13 13 13 12 12 12 11 11 10 9 8 7 7 6 7 8
25 26 25 25 25 26 26 24 27 27 26 25 24 23 22 18 16 16 15 15 14 14 16 16 16 15 15 15 15 14 13 13 13 12 12 11 11 10 8 8 7 7 7 6 6 6 5 6 7
26 26 25 25 25 25 25 24 27 27 27 27 25 23 22 20 16 15 14 14 14 14 14 15 15 14 14 14 13 13 13 12 12 11 10 9 8 7 7 7 7 6 6 6 5 5 4 5 5
26 25 25 25 25 23 24 25 26 28 27 28 27 23 21 19 16 14 13 13 13 13 13 13 14 14 13 13 13 13 13 12 11 10 9 9 8 7 6 6 6 5 5 5 5 4 4 4 4
25 24 24 24 24 24 26 26 26 28 28 27 26 22 20 17 14 12 12 12 13 12 13 13 14 13 13 13 13 13 12 11 10 10 8 8 8 7 6 5 5 5 4 4 4 4 3 3 3
25 24 23 23 24 25 25 25 27 27 25 23 24 21 17 14 12 11 12 12 12 12 12 12 13 12 11 12 12 12 11 11 9 10 8 7 7 6 5 5 5 4 4 4 4 4 4 4 3
23 25 25 24 24 23 24 26 26 26 23 22 22 18 13 11 11 11 11 12 11 11 11 11 11 11 11 11 12 11 11 10 9 7 6 6 6 6 5 5 4 4 4 4 4 4 4 4 4
24 26 24 23 21 21 24 25 26 25 24 23 21 15 12 11 10 10 10 10 10 11 11 11 11 11 11 11 11 11 10 7 6 5 5 6 5 5 5 5 4 4 4 4 4 4 5 4 4
25 24 24 24 25 23 22 25 24 25 23 24 21 14 11 11 10 10 10 9 10 10 10 10 11 12 12 11 10 8 7 6 5 5 6 5 5 5 5 5 5 5 5 5 4 4 4 4 4
25 25 25 24 23 24 23 24 22 21 21 22 20 13 11 11 11 10 9 9 10 11 11 10 9 10 11 9 8 7 7 5 5 5 5 5 5 5 5 5 5 5 5 5 5 5 4 4 4
Wind_Speed
8 6 5 4 6 7 7 3 1 6 7 7 8 6 5 6 5 3 8 8 7 9 12 13 13 14 12 12 12 13 14 15 14 14 13 13 12 10 9 7 6 4 3 3 3 4 5 7 7
8 5 4 4 8 10 5 5 6 8 11 11 9 6 5 4 4 8 10 9 11 10 10 12 14 15 15 14 14 13 14 14 14 14 13 11 10 9 7 5 4 2 3 4 5 6 7 7 6
6 5 4 4 8 6 4 6 9 11 12 10 7 5 4 3 5 8 9 12 12 10 9 12 14 15 14 13 12 12 12 13 12 11 11 9 9 7 5 3 3 3 5 6 7 7 7 6 5
6 5 4 7 9 2 2 5 10 14 11 8 10 7 4 3 6 7 12 13 12 10 10 12 12 15 14 14 14 14 13 12 11 9 8 7 7 6 5 3 3 4 6 7 7 8 8 6 6
7 5 7 10 7 1 2 5 13 15 13 12 8 7 7 4 3 9 12 10 10 10 10 12 10 14 15 15 14 14 14 12 11 9 8 7 6 6 5 4 5 5 6 7 8 8 8 6 5
6 5 8 10 5 3 6 10 14 15 14 14 8 10 6 5 8 11 11 10 10 10 10 12 12 14 14 13 13 13 13 12 10 9 8 8 7 6 6 5 5 4 4 5 6 5 4 3 3
11 8 10 5 4 4 5 12 15 15 15 13 11 9 5 8 10 11 10 9 9 9 10 11 13 14 14 12 12 12 12 12 10 9 9 9 8 6 5 5 5 4 4 5 4 3 2 2 2
7 7 9 5 6 4 6 11 14 13 12 12 9 7 6 13 13 11 9 7 6 7 8 8 11 12 13 13 13 13 12 11 10 9 7 7 7 6 6 5 5 4 4 4 3 3 2 1 1
5 8 8 4 4 3 6 8 12 11 11 11 8 3 5 17 16 14 11 9 7 7 7 9 8 9 10 12 13 13 12 11 10 9 8 7 5 5 6 6 5 3 4 4 3 2 0 3 6
7 10 3 1 2 3 3 8 13 13 15 13 11 6 11 18 17 16 15 12 10 9 8 10 10 10 10 9 10 9 9 9 8 7 7 4 2 1 2 6 4 3 4 3 3 2 5 7 4
10 10 0 3 4 6 4 9 15 13 14 15 17 15 16 18 18 16 13 10 9 7 8 8 8 9 10 9 8 7 7 7 7 7 5 4 3 3 4 3 5 4 4 5 4 4 4 3 4
9 10 7 6 7 8 5 6 11 11 8 10 15 18 20 20 19 16 13 10 9 6 5 6 10 9 9 9 7 6 6 6 7 7 7 6 5 4 3 2 2 2 2 2 4 4 2 4 5
14 11 8 10 11 8 4 5 5 7 4 5 14 19 20 20 17 14 11 9 9 6 4 5 9 10 8 8 7 7 6 6 6 7 7 5 4 3 4 3 2 2 3 5 4 4 4 5 6
7 10 10 11 11 4 4 5 6 5 4 8 14 17 19 19 17 13 11 8 6 5 4 4 7 10 10 8 7 6 6 5 5 6 5 4 4 2 3 3 4 3 4 6 6 6 5 6 6
7 9 13 13 9 3 4 8 7 5 7 11 13 14 16 17 16 13 11 8 4 3 4 3 7 10 10 9 8 7 6 6 5 2 1 1 2 2 3 2 2 3 4 3 4 4 4 5 5
9 12 14 12 8 5 9 13 9 7 9 11 12 13 15 16 14 11 9 7 4 3 4 3 4 9 9 8 8 6 4 3 3 3 4 4 4 3 1 1 3 3 3 4 4 5 6 5 6
13 14 16 10 4 4 9 10 7 7 10 11 11 12 14 15 15 11 9 8 5 3 2 3 4 8 8 6 6 6 5 5 5 5 7 8 8 7 4 4 5 5 5 5 5 4 5 6 7
14 12 15 12 4 5 10 10 3 8 11 12 11 12 14 15 16 12 9 8 6 4 3 4 6 8 8 8 8 8 8 7 8 9 9 10 9 9 6 6 6 5 4 5 6 6 6 7 7
10 11 13 12 7 8 12 11 8 9 12 14 14 13 16 16 16 12 10 8 7 5 5 7 9 9 9 8 8 8 7 7 8 9 10 11 10 9 7 5 5 6 5 5 5 5 7 7 6
14 15 16 14 9 7 11 13 13 11 15 15 16 16 17 15 15 14 13 11 9 7 7 8 9 9 8 7 6 6 8 7 8 9 10 10 9 8 6 5 5 5 5 5 5 6 7 8 6
16 16 17 14 11 11 14 18 19 15 14 14 16 18 19 18 18 15 14 12 10 8 9 9 9 9 9 10 10 9 10 8 6 5 4 5 5 5 5 6 6 6 7 5 4 5 7 7 7
16 16 16 17 16 12 9 13 13 14 15 15 17 19 20 19 18 16 14 13 12 11 12 13 12 12 12 10 10 9 7 5 4 4 2 2 3 5 5 4 4 4 4 3 4 4 6 6 7
14 11 12 15 16 15 13 12 14 10 14 19 19 19 20 20 19 18 18 17 15 15 14 15 15 14 13 10 10 9 8 6 4 3 2 2 2 4 5 5 4 3 3 3 3 4 5 6 6
11 11 11 12 13 15 17 15 14 12 13 16 18 18 18 18 17 17 17 17 14 15 14 15 15 14 13 11 10 9 9 5 3 1 4 4 3 3 5 6 5 3 3 3 3 4 5 5 5
12 12 10 12 13 15 14 12 12 10 7 8 10 17 17 17 18 19 18 16 15 15 15 15 14 14 12 11 9 8 6 4 1 2 3 4 2 2 4 3 3 3 4 4 4 4 4 3 5
15 16 14 11 13 11 6 6 8 4 1 2 8 17 17 18 19 19 17 16 15 15 14 15 14 13 11 10 8 6 4 3 2 5 2 2 2 3 2 2 3 4 4 5 5 7 5 5 7
13 13 17 16 17 13 12 12 7 8 5 5 12 18 18 19 18 17 16 14 14 13 13 15 15 14 11 9 8 6 6 6 5 4 1 1 2 3 3 4 5 6 6 7 8 9 9 9 9
14 12 8 12 14 14 14 12 7 7 9 12 16 17 17 19 18 16 14 12 13 14 13 14 14 13 10 9 8 6 6 5 2 1 2 3 3 4 5 5 6 7 9 9 10 11 12 11 12
13 15 14 11 11 12 14 10 1 2 4 11 16 17 19 19 18 18 15 14 13 15 14 13 12 11 10 9 7 3 4 1 2 3 3 4 5 5 6 7 8 10 11 12 13 14 16 16 15
11 11 15 13 13 12 13 9 3 3 6 10 15 17 20 19 18 17 16 15 15 14 14 12 10 10 10 6 3 3 3 1 3 4 4 5 6 7 9 10 12 13 15 15 16 17 17 18 18
Wind_Direction
192 206 241 241 240 237 240 156 182 139 115 84 81 66 64 33 4 58 135 143 152 147 140 153 153 149 143 136 134 132 128 124 122 120 120 120 122 124 124 131 139 140 135 124 113 99 82 74 64
186 198 229 236 248 234 181 143 166 113 102 117 107 102 97 75 61 123 144 152 157 150 149 151 156 151 152 153 152 147 141 134 128 123 124 125 124 122 126 140 136 113 73 61 67 80 86 82 71
196 224 254 246 239 257 95 150 138 115 131 137 126 102 84 89 129 137 127 144 150 146 146 134 155 153 156 156 153 148 142 135 131 129 129 129 128 129 129 125 95 72 70 70 71 76 84 88 84
211 213 233 246 238 232 17 126 139 138 143 141 133 120 108 89 138 142 144 147 145 142 143 129 153 152 157 156 158 152 144 141 139 141 140 141 139 136 132 120 99 91 87 83 90 97 95 93 89
228 243 236 238 246 194 162 144 156 151 148 150 150 137 136 144 161 152 152 151 141 142 140 140 148 146 154 156 160 151 142 144 150 152 151 151 151 141 129 115 101 96 95 99 104 103 98 93 82
220 240 241 227 190 181 177 170 162 153 152 155 161 147 138 162 181 167 160 158 150 147 144 137 136 141 145 147 151 148 144 150 155 154 152 149 150 144 134 121 115 118 121 119 114 116 113 100 78
249 239 258 262 188 162 148 178 177 157 164 162 157 159 148 186 193 174 170 165 156 151 144 144 141 138 129 127 131 137 144 151 153 159 160 153 150 147 144 137 127 121 117 111 104 105 99 81 43
258 259 249 222 194 148 136 172 191 183 172 151 171 189 180 184 188 179 181 178 163 144 138 139 143 143 135 132 136 141 142 142 146 157 156 148 154 153 153 164 120 114 125 126 100 70 57 67 70
243 248 229 167 194 144 160 165 175 181 168 182 197 233 111 154 175 182 188 191 177 156 151 149 150 151 149 138 143 144 138 141 153 162 157 185 185 170 156 103 84 90 109 111 89 72 43 236 201
228 245 209 53 309 307 198 178 161 173 181 196 200 182 135 155 178 188 193 193 183 164 168 172 167 166 159 150 150 156 156 168 169 171 170 194 164 135 77 104 110 125 141 152 151 196 237 243 234
228 251 60 278 316 307 257 177 168 180 192 206 203 182 162 171 186 196 196 187 173 158 183 187 178 179 167 157 160 164 166 168 168 175 184 177 188 184 203 185 187 185 187 204 195 211 240 277 293
237 240 258 286 304 295 294 173 176 197 220 211 201 181 177 181 190 193 186 174 151 150 165 174 191 183 179 160 176 160 169 173 175 166 182 187 205 195 213 200 166 212 205 228 234 243 247 260 266
236 246 252 265 278 285 253 200 182 212 247 216 184 180 184 187 190 185 175 174 157 144 126 163 185 178 176 184 169 163 163 182 170 183 190 216 219 194 203 167 248 281 283 274 281 282 265 265 257
237 249 259 266 265 262 227 159 203 184 209 187 183 189 188 191 186 173 165 168 150 150 139 138 176 178 183 189 173 165 174 163 190 196 191 218 251 243 262 247 258 290 311 327 332 332 312 298 298
248 256 254 243 243 245 234 193 201 139 189 192 193 194 192 193 187 175 166 155 144 133 106 130 170 177 183 183 174 180 178 188 189 174 132 300 297 307 279 286 345 27 21 1 348 324 310 305 313
235 239 243 224 211 203 229 225 156 166 193 202 198 193 193 194 190 172 144 128 153 127 94 90 155 168 180 181 174 169 150 153 126 126 89 55 47 32 358 64 52 23 14 5 356 345 329 318 318
223 235 230 210 186 222 230 237 141 182 207 213 203 194 193 191 193 176 150 146 146 132 88 80 135 160 164 150 136 120 120 108 101 95 84 73 64 55 50 47 43 17 17 16 356 348 341 321 309
233 231 240 234 191 253 251 248 205 219 223 221 205 193 195 198 202 180 167 148 138 116 88 93 120 129 130 134 134 122 108 96 84 77 79 77 71 66 65 68 41 22 18 18 6 344 331 315 312
268 260 254 246 252 266 257 253 234 243 233 226 211 200 205 193 205 176 175 163 152 134 109 112 120 137 149 153 144 125 116 111 101 88 78 75 69 59 45 39 33 12 10 3 348 333 308 298 303
234 242 250 253 251 256 259 253 251 242 239 231 220 211 212 195 199 188 180 175 169 144 125 121 128 136 145 135 116 118 117 99 88 86 78 74 73 65 54 22 352 348 324 298 310 314 302 293 292
232 243 252 257 255 254 260 257 248 231 232 236 232 222 204 202 197 184 186 174 167 148 128 124 122 121 115 115 116 115 116 119 117 109 113 100 78 43 17 355 342 323 299 316 325 326 319 320 312
241 239 251 261 260 263 249 271 250 221 223 231 232 223 211 194 198 183 168 162 152 148 137 131 125 117 112 118 123 133 132 131 136 147 138 121 34 354 351 354 357 346 331 9 355 8 337 336 325
245 249 245 253 255 263 255 256 260 230 237 232 224 217 208 193 186 177 161 150 150 150 141 133 125 118 115 120 128 132 127 135 150 143 193 270 353 2 2 21 22 5 357 31 12 359 347 335 332
232 239 240 246 249 250 247 251 258 224 224 242 211 201 198 189 163 152 146 142 145 143 136 127 121 121 125 131 134 128 121 125 137 84 319 325 349 13 37 19 25 1 344 344 331 337 336 338 328
220 231 236 227 231 244 242 241 253 257 240 259 197 185 183 158 144 144 145 143 145 143 137 131 132 129 130 122 114 105 107 111 103 60 8 317 338 18 52 2 0 334 333 319 309 310 312 313 314
213 230 246 257 257 261 160 238 261 233 274 259 188 166 156 148 148 148 149 147 149 146 144 139 133 125 116 102 93 83 53 48 48 70 43 295 350 22 16 331 338 330 325 317 303 293 296 300 291
233 227 247 264 270 270 260 259 250 215 209 200 167 151 147 144 147 150 151 150 147 144 147 136 124 113 99 85 68 58 41 36 53 83 248 302 343 353 339 314 302 301 304 311 308 296 292 284 284
244 250 237 230 245 255 258 249 235 208 200 185 166 155 151 151 150 149 154 147 141 140 126 114 111 96 81 71 60 49 61 61 69 238 342 339 332 337 324 309 300 291 289 291 293 291 289 286 283
213 230 236 257 257 259 260 258 107 187 206 195 172 158 158 159 157 155 150 138 145 138 129 122 109 94 81 71 70 59 65 93 230 280 330 308 289 293 299 303 299 294 290 288 284 282 281 280 276
264 242 228 238 248 246 262 271 95 259 240 208 176 163 161 162 159 149 142 151 155 145 139 126 106 91 88 94 109 100 79 323 274 293 313 297 284 287 293 294 289 287 287 287 286 286 287 290 290
Height
1532 1533 1535 1537 1532 1519 1509 1505 1508 1507 1510 1518 1521 1522 1523 1526 1525 1532 1536 1534 1536 1540 1540 1540 1541 1543 1545 1547 1550 1552 1554 1555 1557 1559 1560 1561 1562 1563 1563 1565 1566 1567 1568 1568 1569 1569 1570 1570 1570
1532 1533 1537 1534 1523 1514 1501 1504 1507 1507 1515 1521 1523 1524 1525 1528 1530 1532 1533 1533 1536 1539 1541 1542 1542 1544 1545 1548 1550 1552 1554 1556 1558 1559 1560 1561 1562 1563 1564 1566 1567 1567 1568 1568 1569 1569 1569 1569 1569
1533 1534 1535 1526 1517 1507 1503 1505 1506 1514 1519 1520 1522 1524 1527 1529 1531 1533 1533 1533 1537 1539 1541 1542 1542 1543 1545 1547 1550 1552 1555 1557 1559 1560 1561 1562 1562 1563 1564 1566 1566 1567 1567 1568 1569 1570 1569 1569 1568
1536 1537 1533 1524 1511 1503 1503 1506 1509 1516 1519 1520 1521 1526 1529 1531 1532 1534 1533 1535 1538 1539 1540 1539 1541 1543 1545 1547 1550 1552 1553 1556 1558 1560 1561 1562 1563 1564 1565 1566 1566 1567 1567 1568 1569 1569 1569 1569 1568
1536 1532 1523 1517 1506 1505 1508 1509 1512 1514 1518 1520 1521 1524 1528 1530 1530 1533 1535 1536 1538 1540 1541 1540 1541 1543 1545 1548 1550 1552 1554 1556 1559 1560 1562 1563 1564 1564 1565 1566 1566 1567 1567 1568 1568 1569 1569 1569 1568
1533 1528 1517 1510 1505 1505 1507 1510 1510 1512 1516 1519 1521 1522 1528 1528 1529 1533 1535 1536 1539 1540 1541 1541 1542 1544 1546 1548 1551 1553 1555 1555 1558 1561 1562 1563 1565 1565 1565 1566 1567 1568 1568 1568 1568 1569 1570 1569 1568
1530 1519 1512 1507 1505 1504 1505 1508 1508 1510 1514 1518 1520 1522 1526 1526 1528 1532 1536 1538 1539 1540 1542 1543 1544 1545 1547 1549 1552 1553 1554 1557 1559 1562 1562 1563 1564 1564 1564 1565 1566 1567 1568 1568 1568 1568 1568 1568 1567
1527 1519 1510 1505 1505 1503 1507 1507 1508 1510 1513 1517 1520 1519 1521 1524 1527 1531 1536 1539 1540 1541 1542 1544 1546 1547 1547 1549 1551 1552 1555 1557 1559 1560 1561 1563 1563 1563 1564 1565 1565 1566 1567 1567 1568 1567 1567 1567 1566
1526 1517 1505 1501 1504 1502 1505 1504 1507 1510 1514 1517 1518 1519 1520 1521 1526 1531 1534 1537 1539 1540 1541 1543 1545 1546 1549 1550 1550 1551 1553 1555 1557 1559 1560 1562 1564 1564 1565 1565 1565 1565 1565 1566 1566 1566 1566 1566 1565
1521 1510 1501 1505 1506 1503 1501 1501 1505 1509 1513 1515 1517 1519 1520 1521 1525 1528 1532 1536 1538 1539 1541 1543 1546 1548 1549 1550 1551 1552 1553 1555 1557 1559 1560 1562 1563 1564 1565 1564 1565 1565 1565 1565 1565 1564 1564 1565 1566
1516 1506 1504 1507 1505 1505 1500 1498 1502 1503 1509 1511 1513 1517 1518 1521 1524 1528 1533 1536 1538 1539 1541 1544 1545 1548 1550 1551 1552 1554 1555 1556 1556 1558 1559 1561 1562 1564 1565 1567 1566 1566 1565 1566 1565 1565 1565 1565 1565
1515 1509 1508 1506 1505 1503 1499 1497 1498 1500 1502 1505 1510 1514 1516 1519 1523 1528 1533 1536 1537 1538 1541 1542 1544 1546 1549 1551 1552 1553 1555 1557 1557 1557 1558 1560 1562 1563 1565 1566 1566 1566 1567 1566 1566 1567 1564 1563 1563
1513 1509 1508 1507 1504 1500 1500 1497 1496 1500 1504 1506 1508 1511 1514 1520 1525 1530 1534 1536 1537 1538 1540 1542 1545 1546 1548 1550 1552 1553 1555 1556 1558 1557 1558 1561 1563 1563 1564 1565 1565 1566 1567 1567 1566 1566 1564 1563 1563
1509 1509 1508 1505 1501 1498 1496 1497 1498 1499 1503 1506 1508 1511 1514 1519 1525 1529 1532 1535 1537 1537 1538 1540 1542 1544 1546 1549 1551 1552 1554 1556 1558 1560 1561 1561 1562 1563 1563 1564 1564 1564 1564 1564 1563 1563 1562 1563 1562
1509 1509 1505 1501 1499 1497 1496 1495 1495 1499 1503 1505 1508 1511 1515 1520 1525 1529 1532 1535 1536 1537 1537 1538 1540 1542 1545 1548 1550 1553 1555 1557 1559 1560 1560 1560 1560 1560 1560 1562 1562 1561 1560 1560 1559 1559 1560 1559 1558
1507 1505 1503 1493 1496 1497 1499 1493 1493 1499 1502 1504 1505 1509 1514 1520 1525 1529 1531 1531 1533 1536 1537 1538 1541 1542 1545 1548 1550 1552 1553 1554 1556 1558 1558 1557 1558 1558 1558 1559 1559 1557 1557 1557 1556 1556 1556 1556 1554
1500 1500 1495 1492 1494 1494 1494 1489 1494 1499 1501 1502 1503 1507 1512 1518 1523 1527 1528 1528 1531 1534 1536 1537 1539 1541 1544 1546 1548 1548 1549 1551 1552 1553 1554 1555 1556 1556 1557 1557 1555 1555 1555 1553 1553 1553 1551 1551 1549
1493 1493 1493 1493 1491 1494 1493 1489 1494 1498 1499 1499 1501 1505 1510 1515 1520 1524 1525 1526 1529 1533 1534 1535 1537 1539 1541 1543 1545 1547 1548 1549 1549 1550 1551 1553 1554 1554 1554 1553 1553 1553 1551 1549 1549 1548 1548 1546 1543
1493 1496 1495 1491 1490 1494 1491 1490 1493 1496 1497 1496 1498 1502 1506 1511 1517 1519 1521 1525 1528 1531 1533 1534 1535 1536 1539 1543 1546 1546 1547 1548 1549 1550 1550 1550 1551 1552 1552 1552 1550 1549 1548 1546 1545 1543 1542 1541 1538
1497 1499 1495 1489 1489 1492 1489 1490 1487 1494 1493 1493 1494 1499 1502 1507 1512 1514 1518 1522 1526 1529 1531 1533 1534 1535 1539 1542 1544 1545 1546 1546 1546 1546 1548 1549 1549 1549 1549 1548 1547 1545 1544 1543 1541 1539 1537 1535 1534
1495 1495 1491 1490 1485 1489 1491 1491 1484 1484 1489 1490 1490 1492 1497 1502 1506 1509 1516 1519 1523 1526 1528 1531 1533 1534 1536 1537 1538 1541 1542 1543 1545 1546 1547 1547 1546 1546 1544 1543 1541 1540 1540 1539 1536 1535 1533 1531 1530
1491 1485 1488 1489 1491 1487 1485 1495 1476 1475 1479 1482 1484 1486 1490 1496 1500 1505 1510 1514 1518 1522 1525 1527 1530 1532 1534 1536 1537 1541 1542 1543 1545 1546 1546 1545 1543 1542 1540 1538 1536 1534 1535 1534 1533 1532 1530 1529 1527
1484 1480 1484 1485 1486 1488 1486 1492 1478 1470 1474 1471 1475 1479 1484 1489 1495 1500 1505 1509 1514 1520 1522 1523 1526 1529 1531 1534 1536 1539 1540 1542 1543 1544 1544 1543 1543 1541 1538 1534 1533 1533 1532 1530 1528 1527 1526 1525 1524
1480 1481 1483 1483 1484 1493 1484 1483 1478 1463 1465 1461 1462 1475 1481 1488 1492 1496 1501 1506 1512 1517 1520 1522 1524 1527 1530 1533 1536 1536 1537 1538 1539 1538 1541 1542 1540 1538 1536 1532 1531 1532 1531 1529 1527 1525 1524 1522 1521
1481 1486 1489 1488 1488 1485 1469 1472 1470 1457 1457 1458 1461 1473 1481 1487 1490 1494 1499 1504 1509 1513 1516 1520 1524 1527 1530 1532 1533 1533 1533 1533 1534 1531 1536 1538 1536 1533 1532 1530 1529 1530 1528 1526 1526 1524 1521 1520 1521
1475 1481 1488 1489 1484 1473 1472 1475 1461 1455 1460 1463 1464 1471 1480 1486 1490 1495 1499 1503 1508 1512 1516 1520 1524 1526 1528 1529 1530 1530 1530 1529 1531 1529 1532 1534 1533 1530 1529 1528 1528 1527 1526 1526 1525 1523 1520 1519 1519
1475 1472 1471 1477 1478 1484 1473 1463 1457 1456 1461 1463 1465 1474 1482 1486 1490 1494 1498 1503 1508 1514 1519 1521 1522 1524 1525 1525 1527 1527 1526 1526 1529 1528 1531 1533 1530 1530 1529 1527 1526 1526 1525 1525 1523 1522 1519 1518 1516
1465 1462 1477 1479 1488 1490 1472 1464 1458 1454 1455 1459 1467 1478 1484 1488 1490 1493 1499 1506 1510 1514 1517 1518 1521 1521 1522 1524 1526 1526 1524 1526 1529 1531 1530 1530 1530 1528 1527 1526 1525 1525 1524 1522 1520 1519 1518 1515 1512
1459 1463 1465 1463 1460 1472 1478 1462 1450 1450 1454 1456 1465 1475 1482 1485 1488 1493 1500 1506 1512 1514 1516 1515 1516 1518 1521 1523 1522 1523 1523 1525 1527 1529 1528 1529 1529 1527 1527 1525 1525 1524 1522 1520 1517 1515 1514 1510 1505
1452 1450 1455 1465 1465 1461 1466 1462 1453 1455 1455 1457 1463 1473 1480 1484 1488 1494 1498 1502 1507 1510 1511 1513 1514 1516 1518 1520 1521 1522 1522 1526 1527 1527 1527 1527 1527 1526 1525 1524 1522 1520 1518 1515 1512 1509 1507 1504 1499